User: anonymous   Login
Location: Hiram
(41.3130°N, 81.1440°W)
Time: 18:34:32
(UTC-04:00)
Language:

Iridium 62 - Orbit

View from above orbital plane
View from above orbital plane
View from above satellite
View from above satellite

Ground track
Ground track

The orbit data is extracted from the following two-line orbital elements,

1 25285U 98021A   16178.53378530  .00000012  00000-0 -28544-5 0  9991
2 25285  86.3949  12.5930 0002325  88.9326 271.2136 14.34215973954044
Epoch (UTC): 26 June 2016 12:48:39
Eccentricity: 0.0002325
inclination: 86.3949°
perigee height: 776 km
apogee height: 779 km
right ascension of ascending node: 12.5930°
argument of perigee: 88.9326°
revolutions per day: 14.34215973
mean anomaly at epoch: 271.2136°
orbit number at epoch: 95404

The dashed part of the orbit path shows where the satellite is in the earth's shadow,  

DLR